Location: Wald
(31.7579°N, 86.6655°W)
Time: 00:39:39
(UTC+00:00)

Cosmos 1867 - Pass Details

Date: 14 July 2020
Orbit: 778 x 798 km, 65.0° (Epoch: 12 August)

Event Time Altitude Azimuth Distance (km) Brightness Sun altitude
Exits shadow 08:50:01 41° 185° (S) 1,127 4.0 -21.8°
Maximum altitude 08:51:51 70° 115° (ESE) 839 3.7 -21.6°
Drops below altitude 10° 08:57:15 10° 33° (NNE) 2,363 7.1 -20.7°
Sets 08:59:42 0° 31° (NNE) 3,298 8.2 -20.4°
